SL-12 DEB, 29317

Orbit data source: Space-Track

SL-12 DEB, 29317 is space debris in HEO originally from a launch on Wed, 31 May 1989 UTC launched from the Tyuratam Missile And Space Complex (TTMTR). Debris objects in space refer to the collection of defunct objects orbiting the Earth. Examples of debris include non-operational satellites, rocket bodies, and fragments generated from explosions, collisions, or faulty payload assembly.

Loading next visibility...
Identifier
29317, 1989-039Y
Orbit
HEO
Country
Flag of CISCIS
Related business
Manufacturer
Unknown
Mission
Spacecraft
Bus & Motor
Unknown
Mass
Unknown
Launch date (UTC)
1989-05-31 (37 years ago)
Launch vehicle
Unknown
Launch site
Tyuratam Missile And Space Complex (TTMTR)
Object type
Payload
Rocket body
Debris
Shape & HBR
Unknown shape, 0.3 m
Radar Cross Section
Medium (>0.1 m² and <1 m²)

Expand to show TLE details & history
Last TLE update: 16 hours ago

TLE from 16 hours ago
0 SL-12 DEB
1 29317U 89039Y   25349.34288254  .00000117  00000-0  80989-3 0  9996
2 29317  65.1052 346.3575 5415998 103.1443 320.0613  4.63081312177933
Epoch: 2025-12-15T08:13Z
TLE epoch observation values (Epoch: 2025-12-15T08:13:45.051Z)
Latitude
-0.00004°
Longitude
138.68048°
Altitude
5,857.257 km
Speed
6.241 km/s
True Right ascension
23h 05m 26s
True Declination
0° 00' 00"
Sunlit
Object was in daylight at epoch
Visualization orbit readout
Latitude
Unknown
Longitude
Unknown
Altitude
Unknown
Speed
Unknown
Apparent Right ascension
Unknown
Apparent Declination
Unknown
Sunlit
N/A
Visualization observer readout
Local Sidereal Time
23:18:47
Azimuth
Unknown
Elevation
Unknown
Doppler factor
Unknown
Orbital elements
Apogee altitude
17,058.914 km
Perigee altitude
590.954 km
Semi-major axis
15,203.071 km
Eccentricity
0.5416
Inclination
65.1052°
RAAN
346.3575°
Arg. of periapsis
103.1443°
True anomaly
256.9762°
Mean anomaly
320.0613°
Eccentric anomaly
291.113°
Mean motion
1.15783 °/min
Orbital period
310.93 mins
BSTAR
0.00080989
Loading maneuver chart data...
Computing Atmospheric mass density...
Loading historical data...
Loading historical data...
Loading historical data...
Loading historical data...
Loading historical data...
Loading historical data...
Loading historical data...

Documentation

Showing up to 5 results
|